Theta_e
316 306 312 308 300 298 293 296 299 300 308 306 305 307 302 296 301 304 301 300 301 304 310 322 340 345 346 346 347 347 346 345 345 344 343 343 340 339 337 337 338 337 338 341 341 342 341 341 340
308 311 312 302 295 291 294 298 298 299 304 308 298 299 295 292 295 294 297 300 301 305 311 324 335 341 344 345 345 346 346 346 345 345 344 344 343 341 339 338 338 336 336 337 340 341 340 339 338
306 312 307 297 292 291 294 298 299 301 300 306 295 292 291 290 293 294 297 300 303 306 310 320 329 334 336 340 342 344 344 344 344 344 344 344 344 343 343 341 339 338 336 337 338 340 340 338 335
311 310 303 297 293 295 296 297 297 299 300 298 293 290 292 294 294 295 298 301 303 306 309 315 322 324 326 330 333 336 339 342 343 343 343 343 344 344 344 342 342 339 338 337 338 338 340 341 337
309 305 297 294 293 294 294 295 296 298 296 294 298 290 290 294 296 297 298 299 301 303 306 309 316 318 319 321 324 326 328 329 331 335 338 340 342 342 343 343 341 341 339 338 337 338 341 340 338
304 302 295 292 293 294 294 291 296 296 294 291 294 289 290 294 295 296 297 298 299 300 303 306 309 313 313 315 317 318 319 320 321 325 327 330 335 338 340 341 342 341 340 340 339 339 338 339 339
302 299 295 293 292 294 294 290 291 294 291 289 293 290 290 291 295 296 296 296 297 298 300 301 304 306 309 311 312 313 314 315 314 318 317 326 328 328 326 332 338 340 341 341 341 340 338 337 338
302 299 293 292 291 294 290 289 289 291 291 290 291 289 289 292 295 295 296 295 296 297 297 298 301 303 305 305 308 309 310 311 311 311 312 311 311 314 316 320 326 336 339 340 339 339 338 337 337
304 296 291 292 293 294 288 289 288 288 288 288 289 289 292 293 294 294 294 295 296 297 297 297 298 300 303 304 303 305 307 307 307 307 309 308 307 310 310 313 316 320 323 332 338 338 337 335 333
298 295 294 292 291 289 287 287 286 286 286 286 287 289 291 293 293 293 293 293 294 295 296 296 297 298 300 301 302 303 303 305 305 305 306 307 306 308 308 311 312 312 315 324 332 336 334 330 332
290 294 289 287 286 287 286 285 287 284 283 285 285 287 289 291 291 291 292 293 294 295 295 296 296 296 298 299 301 301 302 304 304 304 305 306 305 306 306 309 310 310 311 314 318 329 335 332 331
288 286 286 286 286 285 284 286 285 283 286 287 287 287 289 290 290 290 290 291 292 294 295 296 295 295 297 298 299 300 301 302 302 303 304 305 304 304 304 306 306 307 309 310 311 314 315 324 330
286 284 284 284 284 283 285 283 283 283 285 287 286 287 288 288 289 290 291 292 292 292 294 295 295 295 295 296 297 298 299 300 302 302 303 303 303 303 304 304 306 306 308 308 309 308 310 312 320
283 283 283 283 283 284 282 282 283 284 285 285 285 285 286 288 289 290 290 291 291 292 293 294 294 295 295 295 296 297 298 299 301 301 302 302 303 303 303 303 304 305 306 306 308 305 307 310 313
284 281 282 281 282 282 282 282 281 283 283 284 284 284 285 286 288 289 290 290 291 292 293 293 294 295 294 294 295 296 298 298 299 300 301 301 301 301 301 302 303 303 304 305 305 304 306 308 309
280 280 278 280 282 282 282 282 283 284 283 283 283 283 284 286 287 288 290 290 290 291 292 293 293 293 294 294 295 295 297 298 298 300 300 300 300 300 301 301 301 303 303 304 303 302 303 304 304
278 276 276 279 281 281 281 281 284 283 282 283 283 283 284 285 286 287 289 289 290 291 292 293 293 293 293 294 295 295 296 297 298 299 299 299 299 300 300 300 300 301 302 302 301 301 302 301 303
277 276 277 277 279 279 279 280 284 284 282 283 283 283 283 284 286 288 289 289 290 290 291 291 292 292 293 293 294 295 296 297 297 297 298 298 298 298 299 299 299 300 300 299 300 299 300 300 302
277 276 276 277 279 279 278 278 283 284 282 283 283 283 283 284 288 287 288 289 289 290 290 290 290 291 292 293 293 293 293 295 295 296 296 297 297 298 298 298 298 298 298 298 298 298 297 298 301
279 277 277 279 279 279 278 279 284 284 282 283 285 283 284 284 285 287 288 288 289 290 289 289 290 291 292 292 293 293 294 294 294 295 296 296 296 297 296 296 296 296 296 296 296 296 296 297 299
277 277 276 277 278 277 276 279 282 282 281 282 282 283 282 284 285 286 286 287 288 288 289 289 290 291 291 291 293 293 294 293 293 294 294 295 295 296 295 295 295 295 296 295 296 296 295 294 297
278 278 278 278 277 276 276 276 281 280 281 282 283 283 282 282 283 285 286 286 287 288 288 289 290 290 291 291 291 291 290 289 292 292 293 294 294 294 294 294 294 294 295 295 295 296 296 296 292
278 279 278 277 275 275 275 274 279 279 282 283 284 284 283 283 283 284 285 287 288 288 288 289 289 289 290 291 291 290 289 291 291 291 291 292 293 293 292 293 292 292 292 293 294 294 295 295 295
280 278 278 276 275 271 272 274 278 281 281 282 283 284 284 284 284 284 285 286 287 288 288 289 289 289 290 290 291 290 289 289 289 289 289 290 291 291 292 293 293 292 292 292 292 293 293 294 295
279 276 273 272 270 273 272 272 279 282 283 282 283 284 284 284 284 284 284 285 286 288 288 288 288 288 289 290 290 290 289 289 288 288 288 288 288 289 289 291 292 292 292 292 292 292 292 292 292
276 275 273 269 270 272 274 273 280 282 282 282 283 283 283 283 283 284 285 285 286 287 287 287 287 287 288 289 289 289 289 288 288 288 288 287 288 288 290 290 291 291 291 292 292 292 292 293 293
275 273 275 270 266 269 273 277 282 282 282 283 283 283 283 283 284 284 284 284 286 286 286 286 286 287 288 288 288 288 288 287 286 287 287 288 289 288 288 288 288 288 288 289 289 289 291 291 291
276 278 273 271 267 265 272 273 278 282 282 282 282 283 284 284 283 284 284 284 285 285 285 285 285 286 288 287 287 287 286 286 286 286 286 286 286 286 286 286 286 287 287 287 287 287 288 288 290
273 272 271 271 272 269 267 274 279 281 282 283 284 283 283 283 283 284 284 284 284 284 284 284 284 287 286 286 286 285 285 285 286 285 285 286 286 286 285 285 285 285 285 286 286 286 287 286 287
275 274 275 272 269 268 271 272 281 282 282 281 282 283 283 283 284 283 283 283 283 283 283 283 284 286 285 285 285 284 285 285 284 284 285 286 286 286 286 285 285 285 285 285 284 284 285 285 285
Wind_Speed
10 6 1 5 4 5 2 1 0 3 3 3 2 4 7 4 3 4 2 12 14 11 12 13 15 12 12 11 8 7 7 7 9 9 8 7 7 7 7 7 6 4 7 7 8 7 5 6 6
5 4 4 3 5 3 2 1 3 1 1 3 4 2 5 3 2 2 5 14 12 11 11 15 17 15 13 12 13 12 10 9 9 10 10 10 9 9 9 9 9 8 5 4 5 5 5 4 2
3 3 4 5 3 4 4 3 3 1 3 2 4 5 2 2 1 2 5 10 9 10 10 14 18 18 17 16 16 14 13 12 11 10 11 12 12 11 12 11 10 10 10 8 6 6 8 6 5
3 4 4 4 3 3 3 2 1 1 1 4 3 6 2 2 1 3 7 7 7 10 10 12 17 18 19 19 18 18 18 17 16 12 12 13 13 11 12 13 12 12 11 12 12 10 11 12 8
4 3 4 3 2 2 2 2 2 2 2 3 0 5 5 1 2 4 6 7 8 8 10 11 17 17 18 18 19 19 19 19 18 17 16 16 15 15 13 13 14 14 14 14 14 14 13 10 7
4 3 3 4 3 2 2 1 3 2 1 2 4 6 4 2 1 3 3 5 5 7 7 9 12 15 17 18 18 18 18 18 18 17 17 16 15 14 15 15 15 16 17 17 17 15 14 14 11
6 4 4 4 5 2 5 1 4 4 2 2 4 5 1 3 2 0 3 3 4 6 7 7 9 11 14 17 17 18 18 18 19 17 19 17 16 17 18 18 16 17 19 19 18 17 16 15 15
5 5 4 3 6 5 3 4 2 3 3 2 3 4 3 3 3 1 1 3 2 3 5 6 7 8 7 8 15 16 17 18 18 18 18 17 16 18 17 17 20 18 19 18 19 20 18 17 16
3 5 3 7 7 4 2 4 1 2 2 0 2 3 4 5 3 2 1 3 3 4 4 4 6 6 7 6 8 11 13 15 15 15 17 13 10 12 14 14 19 19 20 19 21 21 20 18 15
4 4 7 3 3 4 4 3 5 3 2 3 2 3 3 3 3 3 2 1 2 3 4 4 5 5 5 5 6 7 7 7 7 9 10 8 10 10 12 11 16 18 17 20 20 21 20 14 10
2 3 5 3 2 3 4 2 2 5 5 8 10 8 7 5 5 5 4 3 3 2 2 3 3 3 3 4 3 3 3 4 5 8 8 7 7 7 7 6 6 8 11 8 11 11 8 11 9
5 3 3 2 1 2 2 1 3 6 5 3 8 7 6 7 7 7 6 6 4 4 4 3 3 3 3 2 3 3 4 4 4 5 7 6 5 6 7 6 8 8 7 10 9 6 9 11 15
5 2 4 3 4 2 1 3 5 9 10 3 6 7 8 7 7 6 6 5 4 5 4 4 3 2 2 2 1 2 3 3 4 5 6 5 6 6 7 7 7 7 8 8 8 9 9 9 12
2 4 4 3 3 1 0 2 3 6 6 8 7 9 8 9 9 4 5 5 5 5 5 4 4 3 2 2 3 3 3 4 4 4 5 7 6 6 6 7 7 7 7 8 8 9 9 9 9
4 3 1 4 4 1 2 6 12 4 3 9 9 9 9 10 7 10 7 6 6 5 5 5 4 3 3 4 4 3 4 5 5 5 6 7 7 7 8 7 7 7 7 10 9 9 9 9 9
5 5 1 0 5 1 1 10 2 2 7 10 10 9 9 9 9 9 8 7 6 5 6 4 3 4 4 4 4 4 5 4 5 5 5 8 8 9 8 7 8 8 8 8 8 9 9 9 9
6 2 4 2 3 4 3 9 4 4 7 10 11 11 10 9 8 9 8 7 6 6 5 4 3 5 5 4 4 5 6 4 5 5 5 8 8 8 7 7 8 9 8 8 8 8 9 9 9
5 3 3 4 2 2 4 17 15 9 8 13 13 12 11 11 14 8 8 6 5 5 4 4 3 4 4 3 3 3 4 4 4 5 6 8 7 9 8 7 9 9 8 8 8 11 9 10 10
4 3 3 2 2 3 6 10 21 9 9 15 14 13 13 15 10 7 7 6 5 5 4 3 4 3 2 2 2 2 4 6 6 5 7 8 8 9 9 7 9 9 9 10 11 10 12 9 9
2 2 3 3 2 1 4 17 22 9 9 11 15 12 15 10 10 8 7 6 6 4 4 4 3 3 1 0 1 2 3 5 6 6 7 8 9 10 10 10 10 11 9 11 11 11 9 9 8
1 1 0 2 6 0 7 9 8 2 3 5 8 7 7 14 13 12 7 8 5 6 5 4 3 3 2 2 2 3 4 4 4 5 7 7 10 11 12 13 11 11 10 9 11 10 13 10 8
2 2 2 3 5 4 5 8 10 4 9 6 8 8 8 8 6 6 8 6 7 7 5 5 3 2 2 2 3 4 5 8 6 8 8 9 10 10 11 12 12 12 10 12 11 10 11 11 11
3 2 3 1 3 3 2 1 12 4 6 5 5 7 6 5 5 7 8 7 7 6 6 4 3 3 2 3 3 4 7 7 8 8 12 11 10 9 10 10 11 11 10 12 13 13 13 10 11
6 4 3 3 2 2 1 3 9 4 3 5 4 3 3 3 5 5 5 5 5 3 4 3 4 3 2 3 4 5 9 10 9 10 10 9 8 8 10 12 10 10 11 12 11 13 16 13 13
1 3 4 6 4 5 0 1 14 6 5 3 3 4 3 5 4 6 8 6 5 5 5 4 4 5 3 4 5 7 9 11 12 12 10 13 9 8 12 14 12 11 12 13 13 14 14 14 14
3 2 6 6 3 4 3 7 10 7 2 5 7 5 6 5 6 8 8 7 6 5 6 5 5 4 3 4 7 7 8 7 8 9 10 9 9 11 13 12 13 15 15 15 15 13 13 13 12
4 2 4 7 2 4 4 9 13 4 6 8 9 5 8 7 7 8 6 7 7 6 6 6 5 4 3 4 5 8 8 9 9 12 11 9 11 11 13 15 15 15 16 16 16 13 16 16 16
1 4 4 3 1 4 5 6 9 4 2 2 3 9 9 8 7 6 6 7 6 5 4 4 4 4 4 4 4 7 9 9 10 10 12 12 13 14 15 15 14 16 16 16 17 15 16 17 14
4 2 4 4 5 6 2 8 8 7 4 5 7 5 7 8 7 8 8 7 6 4 4 5 4 4 4 4 5 6 8 9 10 10 11 12 13 14 16 16 15 17 17 17 17 18 19 20 18
4 5 7 7 7 3 2 11 4 7 9 6 9 8 7 7 8 7 7 7 6 7 5 6 4 3 3 4 6 7 8 9 10 11 12 12 13 14 14 16 16 16 17 16 18 20 18 20 20
Wind_Direction
323 319 17 41 60 63 45 39 272 17 75 12 21 72 104 64 54 124 345 8 343 344 356 356 2 351 340 334 315 295 273 249 231 229 236 237 241 245 246 252 260 283 316 347 263 223 217 162 169
323 336 42 76 82 75 258 258 94 15 217 192 68 358 54 89 10 27 358 342 343 352 1 11 17 22 14 6 354 335 312 298 271 263 259 250 244 242 252 260 267 270 260 306 279 233 196 167 147
293 22 71 83 106 165 170 169 166 202 23 141 102 44 87 96 343 25 336 329 343 9 11 14 25 32 33 31 29 17 0 338 311 290 284 286 274 258 249 251 255 271 269 249 237 245 249 209 106
7 17 49 83 147 212 163 175 158 272 141 70 126 82 73 87 -0 331 327 348 9 10 14 17 29 33 34 34 32 31 26 23 19 359 330 307 295 289 269 253 249 250 260 269 259 246 234 253 197
30 58 69 77 161 172 204 154 211 134 130 53 319 161 136 121 337 8 5 11 23 19 18 25 33 36 37 36 34 33 29 27 25 18 12 4 346 324 294 261 246 245 250 255 261 263 259 256 238
56 97 92 183 199 203 205 249 175 125 131 87 93 140 183 126 62 352 10 18 21 33 27 29 25 34 37 35 34 33 33 28 24 22 14 6 4 355 329 310 277 255 250 251 253 250 255 260 235
117 96 159 146 165 191 203 215 148 134 139 138 151 146 184 233 179 39 36 27 15 23 31 28 28 27 32 33 33 31 30 28 25 20 15 11 12 9 6 343 310 290 271 258 250 245 243 244 252
105 93 115 184 183 212 170 136 137 184 207 112 183 186 212 185 140 33 312 13 26 40 40 24 25 29 28 33 31 29 28 25 22 18 14 9 3 2 355 0 355 319 288 268 259 248 239 242 243
135 79 169 188 161 174 160 151 295 332 126 107 229 169 166 136 130 124 351 344 6 18 30 21 17 20 16 30 23 23 22 21 18 10 7 6 2 354 350 345 344 334 344 324 276 252 240 233 237
82 121 198 153 148 156 159 189 165 163 184 229 260 248 182 148 161 177 195 272 315 334 343 5 7 6 13 23 18 19 13 14 12 8 6 3 357 350 344 339 343 343 339 333 315 273 250 242 238
16 152 154 180 143 123 145 206 183 158 231 213 195 192 194 194 206 218 228 229 242 275 276 321 327 336 7 14 10 12 7 1 1 1 359 354 354 347 346 337 339 338 337 337 339 322 255 244 235
82 46 55 121 67 111 172 55 256 200 243 242 196 176 174 197 210 218 227 230 235 254 271 281 306 344 1 9 11 353 356 353 349 346 350 349 345 343 338 331 331 331 333 330 335 320 325 316 246
81 128 65 70 66 63 338 263 267 253 238 259 190 190 199 206 218 227 228 240 247 252 256 269 284 299 302 335 331 336 337 328 328 333 336 343 337 331 325 322 320 320 321 322 321 322 313 311 314
97 96 119 59 18 111 26 248 44 267 204 207 202 218 222 217 218 236 235 245 237 243 254 260 273 265 279 335 333 324 313 312 317 316 321 327 325 317 314 313 309 308 310 313 310 312 306 302 299
124 77 66 21 357 334 55 277 234 235 136 203 217 226 229 228 231 228 226 228 223 235 250 256 272 269 298 321 319 323 307 311 309 309 313 314 319 309 306 307 307 303 304 305 303 305 300 295 298
73 63 93 100 357 90 317 270 264 202 167 217 229 234 235 236 226 230 230 233 231 236 240 256 280 300 313 330 317 306 298 301 298 299 305 309 311 307 305 304 304 298 298 297 298 301 297 297 296
14 198 218 299 59 307 186 274 268 153 188 228 229 231 232 245 247 238 230 225 227 225 244 277 312 311 308 300 289 293 297 295 295 296 297 300 303 301 297 292 294 292 290 289 290 292 291 295 294
190 204 241 248 332 333 235 264 265 240 213 232 233 231 229 231 236 224 224 223 228 231 245 264 285 305 298 289 291 289 289 291 293 295 291 296 298 297 296 293 291 290 286 284 283 285 285 285 288
122 145 219 219 162 303 230 272 275 235 226 245 240 237 234 229 236 217 227 222 225 238 245 258 304 315 346 354 340 325 311 311 297 287 289 294 291 293 292 289 290 283 277 279 279 280 283 280 283
63 144 254 270 101 5 343 283 269 253 229 221 238 224 229 227 220 222 218 213 209 207 242 253 269 311 344 258 268 260 278 277 276 281 283 283 289 289 293 292 290 286 280 278 274 274 279 272 259
66 180 93 267 319 123 316 281 299 304 252 237 252 248 234 230 227 225 204 216 209 226 227 244 273 298 322 337 311 299 273 278 286 295 301 295 292 291 291 292 288 287 281 275 274 271 270 273 267
207 97 77 9 19 275 2 285 307 332 294 252 252 236 241 230 222 215 203 202 206 220 210 233 249 295 316 350 327 323 303 305 301 299 295 295 287 286 295 302 300 291 282 279 276 270 261 262 265
133 84 84 78 88 345 17 77 271 338 316 313 273 246 252 240 207 207 201 198 212 196 214 224 264 285 289 320 318 312 303 295 298 297 300 299 295 290 290 293 301 297 294 286 275 272 268 262 259
145 105 77 70 96 12 260 150 280 243 237 323 351 320 308 243 219 226 224 223 230 229 231 231 257 273 292 309 316 310 307 306 308 310 306 306 307 303 290 288 282 277 277 276 273 272 270 262 257
145 74 329 346 12 224 349 358 249 301 271 232 329 8 331 240 220 220 225 220 224 232 243 246 236 275 298 318 324 318 303 303 304 308 309 313 311 307 305 301 293 291 279 276 276 270 265 259 255
154 156 157 219 230 281 21 235 252 218 292 256 255 266 295 273 222 228 228 222 222 246 259 247 245 263 302 324 318 307 304 302 300 300 303 297 299 301 302 299 299 296 293 290 284 277 269 266 264
167 160 174 108 75 44 259 286 290 248 258 249 253 257 254 252 241 237 240 224 229 240 254 235 239 269 292 314 313 308 302 304 301 298 292 299 304 308 310 308 303 301 297 292 290 284 277 266 255
143 151 92 2 188 286 285 278 248 326 265 342 260 241 261 250 251 251 243 237 238 242 257 224 239 261 293 309 303 305 303 303 300 300 300 306 309 311 306 305 301 298 295 292 288 283 278 272 272
149 181 51 113 147 186 241 257 215 228 248 280 277 283 271 256 241 243 239 229 237 256 252 236 236 263 287 303 301 301 305 302 302 299 301 312 309 309 311 311 304 302 298 293 288 282 280 274 271
317 201 163 135 227 224 156 264 221 235 254 255 269 269 261 246 250 246 244 240 244 257 253 224 220 236 279 307 311 309 302 298 301 301 308 312 310 313 311 306 302 299 297 294 288 284 279 275 270